Location: Go�ngahuizen
(53.0821°N, 5.8849°E)
Time: 13:09:39
(UTC+00:00)

Cosmos 1656 - Pass Details

Date: 09 April 2020
Orbit: 798 x 849 km, 71.1° (Epoch: 27 May)

Event Time Altitude Azimuth Distance (km) Brightness Sun altitude
Rises 19:38:50 0° 328° (NNW) 3,426 8.0 -10.9°
Reaches altitude 10° 19:41:22 10° 334° (NNW) 2,485 7.1 -11.2°
Maximum altitude 19:46:58 54° 51° (NE) 1,026 4.0 -11.9°
Enters shadow 19:51:11 17° 124° (SE) 1,990 5.0 -12.5°
